Regional Weather Roundup
Issued by NWS Jackson, KY

Home | Current Version | Previous Version | Graphics & Text | Print | Product List | Glossary On
Versions: 1 2 3 4 5 6 7 8 9 10 11 12 13 14 15 16 17 18 19 20 21 22 23 24 25 26 27 28 29 30 31 32 33 34 35 36 37 38 39 40 41 42 43 44 45 46 47 48 49 50
000
ASUS43 KJKL 251310
RWRJKL

EAST KENTUCKY HOURLY WEATHER ROUNDUP
NATIONAL WEATHER SERVICE JACKSON KY
800 AM EST THU DEC 25 2014

NOTE: "FAIR" INDICATES FEW OR NO CLOUDS BELOW 12,000 FEET WITH
NO SIGNIFICANT WEATHER AND/OR OBSTRUCTIONS TO VISIBILITY.

* THESE REPORTS ARE NOT UNDER NWS QUALITY CONTROL AND MAY NOT
  REPORT WEATHER SUCH AS PRECIPITATION AND FOG.

KYZ079-080-083-085-087-088-110-112-115-119-120-251400
...EASTERN KENTUCKY...

CITY           SKY/WX    TMP DP  RH WIND       PRES   REMARKS
JACKSON        CLOUDY    37  34  89 W6        30.04R WCI  32
LONDON         CLOUDY    40  33  76 SW5       30.08R
SOMERSET*      CLOUDY    36  32  87 W9        30.11R WCI  29
MONTICELLO*    CLOUDY    39  36  89 W7        30.13R WCI  34
MIDDLESBORO*   CLOUDY    40  33  77 CALM      30.10R
HARLAN APT*    CLOUDY    37  32  81 NW5       30.07R WCI  34
HAZARD APT*    CLOUDY    39  34  81 SW9       30.06  WCI  33
BLACK MTN*       N/A     28  28 100 W2          N/A
PIKEVILLE APT* CLOUDY    37  32  81 SW3       30.03R
BIG SANDY*     CLOUDY    39  35  85 CALM      30.03R
MOREHEAD APT*  CLOUDY    39  34  81 W10G17    30.05R WCI  32
$$

KYZ035-036-041-042-044-050-067-078-099-251400
...CENTRAL KENTUCKY...

CITY           SKY/WX    TMP DP  RH WIND       PRES   REMARKS
MT STERLING*   CLOUDY    37  32  81 W9G20     30.06R WCI  31
FLEMING/MASON* CLOUDY    37  32  81 W12G18    30.04R WCI  30
DANVILLE*      CLOUDY    36  32  87 W8        30.08R WCI  29
RICHMOND*      CLOUDY    37  32  81 W12       30.07R WCI  30
LEXINGTON      CLOUDY    37  32  82 W9        30.05R WCI  30
FRANKFORT      CLOUDY    37  33  85 W6        30.05R WCI  32
$$

KYZ091>093-OHZ055-061-077-WVZ005-015-034-035-042-251400
...SOUTHERN OHIO/WEST VIRGINIA...

CITY           SKY/WX    TMP DP  RH WIND       PRES   REMARKS
COVINGTON      CLOUDY    37  30  75 W8        30.00R WCI  31
COLUMBUS       CLOUDY    37  32  82 W13G22    29.94R WCI  29
DAYTON         CLOUDY    37  31  78 W22       29.96R WCI  26
WILMINGTON     LGT RAIN  35  31  85 W15       29.97R WCI  25
HUNTINGTON     CLOUDY    39  34  82 W9        30.01R WCI  33
CHARLESTON     CLOUDY    41  33  73 W10       29.98R
PINEVILLE*     CLOUDY    40  35  81 MISG      30.04R
BECKLEY        CLOUDY    35  31  85 W7        29.95R WCI  29
BLUEFIELD      CLOUDY    35  29  78 W15G24    29.96R WCI  25
$$

VAZ002-007-008-TNZ017-027-036-066-071-251400
...SOUTHWEST VIRGINIA/EAST TENNESSEE...

CITY           SKY/WX    TMP DP  RH WIND       PRES   REMARKS
WISE*          CLOUDY    36  32  87 W7        30.02R WCI  30
JONESVILLE*    CLOUDY    37  36  93 SW8       30.10R WCI  31
ABINGDON*      CLOUDY    38  32  78 W8        30.03R WCI  33
BRISTOL        MOCLDY    40  31  70 SW8       30.08R WCI  34
KNOXVILLE      LGT RAIN  40  35  83 W7        30.13R
OAK RIDGE      CLOUDY    40  35  83 SW3       30.13R
CROSSVILLE     CLOUDY    36  32  85 W7        30.10R WCI  30
NASHVILLE      CLOUDY    40  34  79 SW3       30.14R
$$

...KEY TO REMARKS...
VSB - VISIBILITY IN MILES
WCI - WIND CHILL INDEX
HX  - HEAT INDEX

$$


USA.gov is the U.S. government's official web portal to all federal, state and local government web resources and services.